When you browse on this site, cookies collect data to enhance your experience and personalize the content and advertising you see.
Visit our Privacy Policy to learn more. By continuing to use the site, you agree to this use of cookies and data.
  • In Spain
  • List of Countries
  • For 7 days
  • Water Temperature
  • Weather Map
  • Weather Widgets
  • user-avatar
    Login

    Hourly Weather Sevan

    Today, 6 April, Monday

    Time Temperature Precipitation Wind Pressure Humidity
    00:00 +8°C° 0 mm 2 mps 642 mmHg 65%
    01:00 +8°C° 0.2 mm 2 mps 641 mmHg 68%
    02:00 +8°C° 0.2 mm 2 mps 641 mmHg 72%
    03:00 +9°C° 0 mm 1 mps 640 mmHg 77%
    04:00 +8°C° 0 mm 2 mps 640 mmHg 76%
    05:00 +7°C° 0 mm 2 mps 640 mmHg 75%
    06:00 +7°C° 0 mm 2 mps 640 mmHg 74%
    07:00 +9°C° 0 mm 2 mps 640 mmHg 70%
    08:00 +10°C° 0 mm 3 mps 641 mmHg 66%
    09:00 +11°C° 0 mm 3 mps 641 mmHg 61%
    10:00 +11°C° 0.1 mm 4 mps 641 mmHg 64%
    11:00 +11°C° 0.1 mm 4 mps 641 mmHg 66%
    12:00 +11°C° 0.1 mm 4 mps 641 mmHg 68%
    13:00 +10°C° 1 mm 4 mps 640 mmHg 73%
    14:00 +9°C° 1 mm 3 mps 640 mmHg 78%
    15:00 +9°C° 1 mm 2 mps 640 mmHg 82%
    16:00 +9°C° 0.8 mm 2 mps 640 mmHg 83%
    17:00 +9°C° 0.8 mm 1 mps 640 mmHg 83%
    18:00 +9°C° 0.8 mm 1 mps 640 mmHg 83%
    19:00 +9°C° 0 mm 1 mps 640 mmHg 83%
    20:00 +9°C° 0 mm 1 mps 640 mmHg 83%
    21:00 +9°C° 0 mm 1 mps 640 mmHg 83%
    22:00 +8°C° 0.1 mm 1 mps 641 mmHg 84%
    23:00 +8°C° 0.1 mm 1 mps 641 mmHg 86%

    Tomorrow, 7 April, Tuesday

    Time Temperature Precipitation Wind Pressure Humidity
    00:00 +8°C° 0.1 mm 1 mps 641 mmHg 88%
    01:00 +7°C° 0.1 mm 1 mps 641 mmHg 87%
    02:00 +6°C° 0.1 mm 2 mps 641 mmHg 86%
    03:00 +6°C° 0.1 mm 2 mps 640 mmHg 85%
    04:00 +5°C° 0.1 mm 3 mps 641 mmHg 85%
    05:00 +5°C° 0.1 mm 3 mps 641 mmHg 84%
    06:00 +4°C° 0.1 mm 3 mps 641 mmHg 83%
    07:00 +5°C° 0.2 mm 3 mps 641 mmHg 81%
    08:00 +5°C° 0.2 mm 3 mps 641 mmHg 78%
    09:00 +5°C° 0.2 mm 3 mps 641 mmHg 75%
    10:00 +5°C° 0.1 mm 3 mps 642 mmHg 71%
    11:00 +7°C° 0.1 mm 3 mps 642 mmHg 67%
    12:00 +8°C° 0.1 mm 3 mps 642 mmHg 64%
    13:00 +8°C° 0 mm 3 mps 642 mmHg 63%
    14:00 +8°C° 0 mm 3 mps 642 mmHg 62%
    15:00 +8°C° 0 mm 3 mps 643 mmHg 61%
    16:00 +6°C° 0 mm 4 mps 642 mmHg 63%
    17:00 +5°C° 0 mm 4 mps 642 mmHg 65%
    18:00 +3°C° 0 mm 5 mps 642 mmHg 67%
    19:00 +3°C° 0 mm 4 mps 642 mmHg 68%
    20:00 +1°C° 0 mm 4 mps 643 mmHg 69%
    21:00 0°C° 0 mm 4 mps 643 mmHg 70%
    22:00 0°C° 0 mm 4 mps 643 mmHg 70%
    23:00 0°C° 0 mm 4 mps 644 mmHg 69%

    Day after tomorrow, 8 April, Wednesday

    Time Temperature Precipitation Wind Pressure Humidity
    00:00 0°C° 0 mm 3 mps 644 mmHg 69%
    01:00 0°C° 0 mm 3 mps 644 mmHg 69%
    02:00 0°C° 0 mm 3 mps 644 mmHg 69%
    03:00 -1°C° 0 mm 3 mps 644 mmHg 69%
    04:00 -1°C° 0 mm 3 mps 644 mmHg 69%
    05:00 -1°C° 0 mm 3 mps 644 mmHg 69%
    06:00 -1°C° 0 mm 3 mps 645 mmHg 69%
    07:00 +1°C° 0 mm 2 mps 645 mmHg 64%
    08:00 +2°C° 0 mm 2 mps 645 mmHg 60%
    09:00 +3°C° 0 mm 2 mps 646 mmHg 55%
    10:00 +4°C° 0 mm 2 mps 646 mmHg 53%
    11:00 +6°C° 0 mm 2 mps 646 mmHg 51%
    12:00 +7°C° 0 mm 2 mps 646 mmHg 48%
    13:00 +7°C° 0 mm 2 mps 645 mmHg 49%
    14:00 +8°C° 0 mm 2 mps 645 mmHg 49%
    15:00 +8°C° 0 mm 2 mps 645 mmHg 49%
    16:00 +7°C° 0 mm 2 mps 644 mmHg 53%
    17:00 +6°C° 0 mm 2 mps 644 mmHg 57%
    18:00 +6°C° 0 mm 2 mps 644 mmHg 61%
    19:00 +4°C° 0 mm 2 mps 643 mmHg 64%
    20:00 +3°C° 0 mm 2 mps 643 mmHg 67%
    21:00 +2°C° 0 mm 2 mps 643 mmHg 70%
    22:00 +2°C° 0 mm 2 mps 643 mmHg 69%
    23:00 +2°C° 0 mm 2 mps 643 mmHg 69%

    9 April, Thursday

    Time Temperature Precipitation Wind Pressure Humidity
    00:00 +2°C° 0 mm 2 mps 643 mmHg 69%
    01:00 +3°C° 0 mm 1 mps 642 mmHg 69%
    02:00 +2°C° 0 mm 1 mps 642 mmHg 70%
    03:00 +1°C° 0 mm 0 mps 641 mmHg 70%
    04:00 +2°C° 0 mm 1 mps 641 mmHg 70%
    05:00 +2°C° 0 mm 1 mps 641 mmHg 70%
    06:00 +2°C° 0 mm 1 mps 640 mmHg 71%
    07:00 +4°C° 0 mm 1 mps 640 mmHg 66%
    08:00 +6°C° 0 mm 1 mps 640 mmHg 62%
    09:00 +6°C° 0 mm 2 mps 640 mmHg 58%
    10:00 +7°C° 0 mm 2 mps 640 mmHg 56%
    11:00 +8°C° 0 mm 2 mps 640 mmHg 55%
    12:00 +10°C° 0 mm 2 mps 639 mmHg 54%
    13:00 +10°C° 0 mm 2 mps 639 mmHg 53%
    14:00 +12°C° 0 mm 2 mps 639 mmHg 53%
    15:00 +12°C° 0 mm 2 mps 639 mmHg 52%
    16:00 +12°C° 0 mm 1 mps 639 mmHg 55%
    17:00 +11°C° 0 mm 1 mps 638 mmHg 58%
    18:00 +10°C° 0 mm 0 mps 638 mmHg 61%
    19:00 +9°C° 0 mm 1 mps 638 mmHg 66%
    20:00 +8°C° 0 mm 1 mps 638 mmHg 70%
    21:00 +6°C° 0 mm 2 mps 638 mmHg 75%
    22:00 +6°C° 0 mm 2 mps 638 mmHg 74%
    23:00 +4°C° 0 mm 3 mps 638 mmHg 74%

    10 April, Friday

    Time Temperature Precipitation Wind Pressure Humidity
    00:00 +4°C° 0 mm 3 mps 638 mmHg 74%
    01:00 +4°C° 0 mm 3 mps 638 mmHg 75%
    02:00 +4°C° 0 mm 2 mps 637 mmHg 75%
    03:00 +4°C° 0 mm 2 mps 637 mmHg 75%
    04:00 +4°C° 0 mm 2 mps 637 mmHg 75%
    05:00 +4°C° 0 mm 2 mps 637 mmHg 75%
    06:00 +5°C° 0 mm 1 mps 637 mmHg 76%
    07:00 +6°C° 0 mm 1 mps 637 mmHg 71%
    08:00 +8°C° 0 mm 1 mps 637 mmHg 67%
    09:00 +9°C° 0 mm 1 mps 637 mmHg 62%
    10:00 +9°C° 0 mm 2 mps 638 mmHg 59%
    11:00 +12°C° 0 mm 2 mps 638 mmHg 57%
    12:00 +13°C° 0 mm 2 mps 638 mmHg 54%
    13:00 +13°C° 0.2 mm 2 mps 637 mmHg 55%
    14:00 +12°C° 0.2 mm 3 mps 637 mmHg 55%
    15:00 +12°C° 0.2 mm 3 mps 637 mmHg 56%
    16:00 +11°C° 0.4 mm 3 mps 637 mmHg 63%
    17:00 +10°C° 0.4 mm 2 mps 636 mmHg 70%
    18:00 +9°C° 0.4 mm 2 mps 636 mmHg 77%
    19:00 +8°C° 0.6 mm 2 mps 636 mmHg 78%
    20:00 +7°C° 0.6 mm 2 mps 636 mmHg 80%
    21:00 +7°C° 0.6 mm 2 mps 636 mmHg 82%
    22:00 +7°C° 0.4 mm 2 mps 636 mmHg 83%
    23:00 +6°C° 0.4 mm 2 mps 636 mmHg 84%

    11 April, Saturday

    Time Temperature Precipitation Wind Pressure Humidity
    00:00 +6°C° 0.4 mm 2 mps 636 mmHg 86%
    01:00 +6°C° 0.6 mm 2 mps 636 mmHg 86%
    02:00 +7°C° 0.6 mm 1 mps 636 mmHg 87%
    03:00 +7°C° 0.6 mm 1 mps 635 mmHg 87%
    04:00 +6°C° 1.2 mm 1 mps 636 mmHg 88%
    05:00 +6°C° 1.2 mm 1 mps 636 mmHg 89%
    06:00 +5°C° 1.2 mm 2 mps 636 mmHg 90%
    07:00 +6°C° 0.4 mm 1 mps 636 mmHg 87%
    08:00 +7°C° 0.4 mm 1 mps 636 mmHg 85%
    09:00 +8°C° 0.4 mm 1 mps 636 mmHg 82%
    10:00 +8°C° 0.1 mm 1 mps 636 mmHg 78%
    11:00 +9°C° 0.1 mm 1 mps 636 mmHg 75%
    12:00 +10°C° 0.1 mm 1 mps 636 mmHg 72%
    13:00 +11°C° 0.2 mm 1 mps 636 mmHg 70%
    14:00 +11°C° 0.2 mm 1 mps 636 mmHg 69%
    15:00 +11°C° 0.2 mm 1 mps 636 mmHg 67%
    16:00 +9°C° 0.2 mm 2 mps 636 mmHg 69%
    17:00 +9°C° 0.2 mm 2 mps 636 mmHg 72%
    18:00 +8°C° 0.2 mm 3 mps 636 mmHg 75%
    19:00 +7°C° 0.5 mm 3 mps 636 mmHg 76%
    20:00 +5°C° 0.5 mm 3 mps 637 mmHg 78%
    21:00 +6°C° 0.5 mm 2 mps 637 mmHg 80%
    22:00 +5°C° 0.2 mm 2 mps 637 mmHg 80%
    23:00 +5°C° 0.2 mm 2 mps 637 mmHg 80%
    Show more